Hamilton Island, Australia

2:01 AM AEST on October 18, 2017 (GMT +1000)
Hamilton Island

Weather History for YBHM - June, 2013

Change the Weather History Date:

Thursday, June 20, 2013

  Actual Average Record
Temperature  
Mean Temperature 66 °F -  
Max Temperature 68 °F - - ()
Min Temperature 63 °F - - ()
Growing Degree Days 16 (Base 50)    
Moisture  
Dew Point 57 °F    
Average Humidity 73    
Maximum Humidity 83    
Minimum Humidity 55    
Precipitation  
Precipitation 0.00 in - - ()
Sea Level Pressure  
Sea Level Pressure 30.05 in    
Wind  
Wind Speed 15 mph ()    
Max Wind Speed 22 mph    
Max Gust Speed -    
T = Trace of Precipitation, MM = Missing Value Source: Averaged Metar Reports

Daily Weather History Graph

Daily Weather History Graph

Search for Another Location

Airport or City:

Trip Planner

Search our weather history database for the weather conditions in past years. The results will help you decide how hot, cold, wet, or windy it might be!

Date:

Astronomy

Jun. 20, 2013 Rise Set
Actual Time 6:38 AM AEST 5:32 PM AEST
Civil Twilight 6:14 AM AEST 5:56 PM AEST
Nautical Twilight 5:47 AM AEST 6:24 PM AEST
Astronomical Twilight 5:19 AM AEST 6:51 PM AEST
Moon 2:28 PM AEST (6/20) 2:47 AM AEST (6/20)
Length of Visible Light 11h 42m
Length of Day
10h 53m
Waxing Gibbous, 84% of the Moon is Illuminated
Jun 20
Waxing Gibbous
Jun 23
Full
Jun 30
Last Quarter
Jul 8
New
Jul 16
First Quarter

Hourly Weather History & Observations

Time (AEST) Temp. Dew Point Humidity Pressure Visibility Wind Dir Wind Speed Gust Speed Precip Events Conditions
12:00 AM 66 °F 58 °F 68% 30.07 in - SE 16.1 mph - -  
12:00 AM 66.2 °F 57.2 °F 73% 30.06 in - SE 16.1 mph - N/A   Unknown
12:30 AM 66.2 °F 57.2 °F 73% 30.06 in - SE 16.1 mph - N/A   Unknown
1:00 AM 64.4 °F 57.2 °F 77% 30.06 in - SE 16.1 mph - N/A   Unknown
1:30 AM 64.4 °F 57.2 °F 77% 30.06 in - SE 17.3 mph - N/A   Unknown
2:00 AM 64.4 °F 55.4 °F 73% 30.04 in - SE 18.4 mph - N/A   Unknown
2:30 AM 64.4 °F 57.2 °F 77% 30.04 in - SSE 18.4 mph - N/A   Unknown
3:00 AM 65 °F 58 °F 70% 30.05 in - SSE 18.4 mph - -  
3:00 AM 64.4 °F 57.2 °F 77% 30.04 in - SSE 18.4 mph - N/A   Unknown
3:30 AM 64.4 °F 57.2 °F 77% 30.04 in - SE 19.6 mph - N/A   Unknown
4:00 AM 64.4 °F 57.2 °F 77% 30.04 in - SE 19.6 mph - N/A   Unknown
4:30 AM 64.4 °F 55.4 °F 73% 30.04 in - SE 20.7 mph - N/A   Unknown
5:00 AM 64.4 °F 53.6 °F 68% 30.04 in - SE 21.9 mph - N/A   Unknown
5:30 AM 64.4 °F 53.6 °F 68% 30.04 in - SSE 20.7 mph - N/A   Unknown
6:00 AM 64 °F 54 °F 63% 30.06 in - SSE 19.6 mph - -  
6:00 AM 64.4 °F 53.6 °F 68% 30.04 in - SSE 19.6 mph - N/A   Unknown
6:30 AM 64.4 °F 55.4 °F 73% 30.04 in - SSE 19.6 mph - N/A   Unknown
7:00 AM 64.4 °F 55.4 °F 73% 30.06 in - SSE 20.7 mph - N/A   Unknown
7:30 AM 64.4 °F 55.4 °F 73% 30.06 in - SSE 19.6 mph - N/A   Unknown
8:00 AM 64.4 °F 55.4 °F 73% 30.06 in - SSE 20.7 mph - N/A   Unknown
8:30 AM 64.4 °F 53.6 °F 68% 30.09 in - SSE 18.4 mph - N/A   Unknown
9:00 AM 66 °F 54 °F 57% 30.10 in - SSE 17.3 mph - -  
9:00 AM 66.2 °F 55.4 °F 68% 30.09 in - SSE 17.3 mph - N/A   Unknown
9:30 AM 66.2 °F 55.4 °F 68% 30.09 in - SSE 16.1 mph - N/A   Unknown
10:00 AM 66.2 °F 55.4 °F 68% 30.09 in - SSE 16.1 mph - N/A   Unknown
10:30 AM 64.4 °F 55.4 °F 73% 30.06 in - SSE 16.1 mph - N/A   Unknown
11:00 AM 66.2 °F 55.4 °F 68% 30.06 in - SSE 16.1 mph - N/A   Unknown
11:30 AM 66.2 °F 55.4 °F 68% 30.06 in - SSE 15.0 mph - N/A   Unknown
12:00 PM 67 °F 54 °F 55% 30.07 in - SSE 15.0 mph - -  
12:00 PM 66.2 °F 55.4 °F 68% 30.06 in - SSE 15.0 mph - N/A   Unknown
12:30 PM 68.0 °F 55.4 °F 64% 30.04 in - SSE 13.8 mph - N/A   Unknown
1:00 PM 66.2 °F 57.2 °F 73% 30.04 in - SSE 15.0 mph - N/A   Unknown
1:30 PM 66.2 °F 57.2 °F 73% 30.01 in - SSE 15.0 mph - N/A   Unknown
2:00 PM 66.2 °F 57.2 °F 73% 30.04 in - SSE 13.8 mph - N/A   Unknown
2:30 PM 66.2 °F 57.2 °F 73% 30.01 in - SSE 12.7 mph - N/A   Unknown
3:00 PM 66 °F 57 °F 66% 30.02 in - SSE 12.7 mph - -  
3:00 PM 66.2 °F 57.2 °F 73% 30.01 in - SSE 12.7 mph - N/A   Unknown
3:30 PM 66.2 °F 57.2 °F 73% 30.01 in - SSE 12.7 mph - N/A   Unknown
4:00 PM 66.2 °F 57.2 °F 73% 30.01 in - SSE 12.7 mph - N/A   Unknown
4:30 PM 66.2 °F 57.2 °F 73% 30.01 in - SSE 12.7 mph - N/A   Unknown
5:00 PM 66.2 °F 59.0 °F 78% 30.04 in - SSE 11.5 mph - N/A   Unknown
5:30 PM 66.2 °F 59.0 °F 78% 30.01 in - SE 15.0 mph - N/A   Unknown
6:00 PM 65 °F 59 °F 76% 30.04 in - SSE 15.0 mph - -  
6:00 PM 66.2 °F 59.0 °F 78% 30.04 in - SSE 15.0 mph - N/A   Unknown
6:30 PM 66.2 °F 59.0 °F 78% 30.04 in - SSE 13.8 mph - N/A   Unknown
7:00 PM 66.2 °F 59.0 °F 78% 30.04 in - SE 13.8 mph - N/A   Unknown
7:30 PM 66.2 °F 59.0 °F 78% 30.04 in - SE 12.7 mph - N/A   Unknown
8:00 PM 66.2 °F 60.8 °F 83% 30.06 in - SE 13.8 mph - N/A   Unknown
8:30 PM 66.2 °F 60.8 °F 83% 30.06 in - SE 13.8 mph - N/A   Unknown
9:00 PM 66 °F 61 °F 78% 30.07 in - SE 12.7 mph - -  
9:00 PM 66.2 °F 60.8 °F 83% 30.06 in - SE 12.7 mph - N/A   Unknown
9:30 PM 66.2 °F 60.8 °F 83% 30.06 in - SE 15.0 mph - N/A   Unknown
10:00 PM 66.2 °F 60.8 °F 83% 30.06 in - SE 13.8 mph - N/A   Unknown
10:30 PM 66.2 °F 59.0 °F 78% 30.06 in - SSE 12.7 mph - N/A   Unknown
11:00 PM 66.2 °F 59.0 °F 78% 30.06 in - SE 12.7 mph - N/A   Unknown
11:30 PM 66.2 °F 59.0 °F 78% 30.06 in - SSE 12.7 mph - N/A   Unknown